User: anonymous   Login
Location: Cincinnati Observatory Center
(39.1389°N, 84.4225°W)
Time: 21:04:28
(UTC-05:00)
Language:

JAS-1B - Orbit

View from above orbital plane
View from above orbital plane
View from above satellite
View from above satellite

Ground track
Ground track

The orbit data is extracted from the following two-line orbital elements,

1 20480U 90013C   14325.82808039  .00000032  00000-0  14615-3 0  9052
2 20480 099.0675 259.4498 0540310 356.9034 057.2600 12.83399533161358
Epoch (UTC): 21 November 2014 19:52:26
Eccentricity: 0.0540310
inclination: 99.0675°
perigee height: 911 km
apogee height: 1744 km
right ascension of ascending node: 259.4498°
argument of perigee: 356.9034°
revolutions per day: 12.83399533
mean anomaly at epoch: 57.2600°
orbit number at epoch: 16135

The dashed part of the orbit path shows where the satellite is in the earth's shadow,  

DLR